Location: Lichtensteig
(47.3376°N, 9.0841°E)
Time: 03:55:49
(UTC+00:00)

SJ 16-02 - Pass Details

Date: 03 March 2021
Orbit: 605 x 617 km, 75.0° (Epoch: 17 April)

Event Time Altitude Azimuth Distance (km) Brightness Sun altitude
Rises 19:34:14 0° 342° (NNW) 2,883 5.3 -24.6°
Reaches altitude 10° 19:36:31 10° 346° (NNW) 1,976 4.3 -25.0°
Enters shadow 19:39:28 39° 6° (N) 927 2.3 -25.5°
